Wilton, MN

11:12 PM CDT on September 25, 2016 (GMT -0500)
Bemidji-Beltrami County

Weather History for KBJI - December, 2012

Change the Weather History Date:

Wednesday, December 26, 2012

  Actual Average Record
Temperature  
Mean Temperature 0 °F -  
Max Temperature 9 °F 14 °F 44 °F (2011)
Min Temperature -9 °F -4 °F -33 °F (1993)
Degree Days  
Heating Degree Days 65    
Moisture  
Dew Point -6 °F    
Average Humidity 81    
Maximum Humidity 90    
Minimum Humidity 72    
Precipitation  
Precipitation 0.00 in - - ()
Sea Level Pressure  
Sea Level Pressure 30.27 in    
Wind  
Wind Speed 1 mph (SE)    
Max Wind Speed 6 mph    
Max Gust Speed -    
Visibility 8 miles    
Events Snow    
Averages and records for this station are not official NWS values.
T = Trace of Precipitation, MM = Missing Value Source: NWS Daily Summary

Daily Weather History Graph

Daily Weather History Graph

Search for Another Location

Airport or City:

Trip Planner

Search our weather history database for the weather conditions in past years. The results will help you decide how hot, cold, wet, or windy it might be!

Date:

Astronomy

Dec. 26, 2012 Rise Set
Actual Time 8:06 AM CST 4:34 PM CST
Civil Twilight 7:30 AM CST 5:10 PM CST
Nautical Twilight 6:51 AM CST 5:49 PM CST
Astronomical Twilight 6:14 AM CST 6:27 PM CST
Moon 3:30 PM CST 6:29 AM CST
Length of Visible Light 9h 39m
Length of Day
8h 27m
Waxing Gibbous, 97% of the Moon is Illuminated
Dec 26
Waxing Gibbous
Dec 28
Full
Jan 4
Last Quarter
Jan 11
New
Jan 18
First Quarter

Hourly Weather History & Observations

Time (CST) Temp. Windchill Dew Point Humidity Pressure Visibility Wind Dir Wind Speed Gust Speed Precip Events Conditions
12:15 AM -9.2 °F - -13.7 °F 81% 30.34 in 10.0 mi Calm Calm - N/A   Mostly Cloudy
12:35 AM -8.9 °F - -13.2 °F 81% 30.33 in 10.0 mi Calm Calm - N/A   Mostly Cloudy
12:55 AM -8.5 °F - -13.0 °F 81% 30.34 in 10.0 mi Calm Calm - N/A   Scattered Clouds
1:15 AM -9.4 °F - -13.9 °F 81% 30.33 in 10.0 mi Calm Calm - N/A   Clear
1:35 AM -9.2 °F - -13.5 °F 81% 30.33 in 10.0 mi Calm Calm - N/A   Clear
1:55 AM -8.5 °F - -12.8 °F 81% 30.32 in 10.0 mi Calm Calm - N/A   Clear
2:15 AM -7.8 °F - -12.1 °F 81% 30.32 in 10.0 mi Calm Calm - N/A   Clear
2:35 AM -7.1 °F - -11.6 °F 81% 30.32 in 10.0 mi Calm Calm - N/A   Mostly Cloudy
3:15 AM -6.0 °F - -10.5 °F 81% 30.31 in 10.0 mi Calm Calm - N/A   Overcast
3:35 AM -5.4 °F -14.1 °F -10.1 °F 80% 30.31 in 10.0 mi SE 3.5 mph - N/A   Overcast
3:55 AM -4.9 °F -13.4 °F -9.4 °F 81% 30.30 in 10.0 mi ESE 3.5 mph - N/A   Overcast
4:15 AM -4.7 °F -15.4 °F -9.0 °F 82% 30.30 in 10.0 mi SE 4.6 mph - N/A   Overcast
4:35 AM -4.2 °F -12.6 °F -8.7 °F 81% 30.30 in 7.0 mi SE 3.5 mph - N/A Snow Light Snow
4:55 AM -4.0 °F -12.4 °F -8.5 °F 81% 30.30 in 4.0 mi SE 3.5 mph - N/A Snow Light Snow
5:35 AM -3.5 °F -15.7 °F -7.8 °F 82% 30.30 in 5.0 mi SE 5.8 mph - N/A Snow Light Snow
5:55 AM -3.3 °F -11.6 °F -7.8 °F 81% 30.30 in 7.0 mi SE 3.5 mph - N/A Snow Light Snow
6:15 AM -3.1 °F -13.5 °F -7.6 °F 81% 30.30 in 7.0 mi SSE 4.6 mph - N/A Snow Light Snow
6:35 AM -2.7 °F -11.0 °F -7.2 °F 81% 30.30 in 4.0 mi SE 3.5 mph - N/A Snow Light Snow
6:55 AM -2.6 °F -10.8 °F -6.9 °F 82% 30.30 in 4.0 mi SE 3.5 mph - N/A Snow Light Snow
7:15 AM -2.2 °F -10.4 °F -6.7 °F 81% 30.30 in 4.0 mi SE 3.5 mph - N/A Snow Light Snow
7:35 AM -2.0 °F -10.1 °F -6.2 °F 83% 30.30 in 4.0 mi SSE 3.5 mph - N/A Snow Light Snow
7:55 AM -1.8 °F - -6.2 °F 82% 30.30 in 2.0 mi Calm Calm - N/A Snow Light Snow
8:15 AM -1.7 °F -9.7 °F -6.0 °F 82% 30.29 in 2.0 mi SSE 3.5 mph - N/A Snow Light Snow
8:55 AM -0.9 °F - -5.3 °F 82% 30.29 in 1.8 mi Calm Calm - N/A Snow Light Snow
9:15 AM -0.6 °F - -5.1 °F 81% 30.29 in 3.0 mi Calm Calm - N/A Snow Light Snow
9:35 AM -0.2 °F - -4.7 °F 81% 30.29 in 4.0 mi Calm Calm - N/A Snow Light Snow
9:55 AM 0.3 °F - -4.4 °F 81% 30.29 in 3.0 mi Calm Calm - N/A Snow Light Snow
10:15 AM 0.7 °F - -4.2 °F 80% 30.30 in 4.0 mi Calm Calm - N/A Snow Light Snow
10:35 AM 1.0 °F - -3.8 °F 80% 30.29 in 5.0 mi Calm Calm - N/A Snow Light Snow
10:55 AM 1.6 °F - -3.5 °F 79% 30.29 in 7.0 mi Calm Calm - N/A   Overcast
11:15 AM 2.3 °F - -2.9 °F 79% 30.28 in 5.0 mi Calm Calm - N/A   Haze
11:35 AM 3.0 °F - -2.2 °F 79% 30.27 in 7.0 mi Calm Calm - N/A   Overcast
11:55 AM 4.1 °F - -1.7 °F 77% 30.26 in 7.0 mi Calm Calm - N/A   Overcast
12:15 PM 4.1 °F - -1.7 °F 77% 30.26 in 7.0 mi Calm Calm - N/A   Overcast
12:35 PM 4.3 °F - -1.3 °F 78% 30.26 in 7.0 mi Calm Calm - N/A   Mostly Cloudy
12:55 PM 4.8 °F - -1.1 °F 76% 30.25 in 10.0 mi Calm Calm - N/A   Scattered Clouds
1:15 PM 5.5 °F - -0.6 °F 76% 30.25 in 10.0 mi Calm Calm - N/A   Clear
1:35 PM 7.9 °F - 0.9 °F 73% 30.25 in 10.0 mi Calm Calm - N/A   Clear
1:55 PM 8.4 °F - 1.6 °F 74% 30.24 in 10.0 mi Calm Calm - N/A   Clear
2:15 PM 8.2 °F - 1.8 °F 75% 30.24 in 10.0 mi Calm Calm - N/A   Clear
2:35 PM 7.9 °F - 0.7 °F 72% 30.24 in 10.0 mi Calm Calm - N/A   Clear
2:55 PM 7.7 °F - 0.9 °F 74% 30.24 in 10.0 mi Calm Calm - N/A   Clear
3:15 PM 7.5 °F - 1.0 °F 75% 30.24 in 10.0 mi Calm Calm - N/A   Clear
3:35 PM 7.7 °F - 1.4 °F 75% 30.24 in 10.0 mi Calm Calm - N/A   Mostly Cloudy
3:55 PM 7.9 °F - 1.4 °F 75% 30.24 in 10.0 mi Calm Calm - N/A   Overcast
4:15 PM 9.0 °F - 2.7 °F 76% 30.24 in 10.0 mi Calm Calm - N/A   Mostly Cloudy
4:35 PM 8.6 °F - 2.8 °F 77% 30.24 in 10.0 mi Calm Calm - N/A   Clear
4:55 PM 6.8 °F - 2.3 °F 82% 30.24 in 10.0 mi Calm Calm - N/A   Clear
5:15 PM 4.8 °F - 1.8 °F 87% 30.24 in 10.0 mi Calm Calm - N/A   Clear
5:35 PM 2.8 °F - 0.5 °F 90% 30.24 in 10.0 mi Calm Calm - N/A   Clear
5:55 PM 0.9 °F - -1.5 °F 90% 30.24 in 10.0 mi Calm Calm - N/A   Clear
6:15 PM 1.8 °F - -0.8 °F 89% 30.24 in 10.0 mi Calm Calm - N/A   Clear
6:35 PM 0.1 °F - -2.7 °F 88% 30.24 in 10.0 mi Calm Calm - N/A   Clear
6:55 PM -0.8 °F - -3.3 °F 89% 30.24 in 10.0 mi Calm Calm - N/A   Clear
7:15 PM -2.7 °F - -5.4 °F 88% 30.24 in 10.0 mi Calm Calm - N/A   Clear
7:35 PM -4.4 °F - -7.2 °F 87% 30.24 in 10.0 mi Calm Calm - N/A   Clear
7:55 PM -4.2 °F - -6.9 °F 88% 30.23 in 10.0 mi Calm Calm - N/A   Clear
8:15 PM -4.4 °F - -7.2 °F 87% 30.23 in 10.0 mi Calm Calm - N/A   Clear
8:35 PM -5.1 °F - -8.3 °F 86% 30.24 in 10.0 mi Calm Calm - N/A   Clear
8:55 PM -4.2 °F - -7.1 °F 87% 30.24 in 10.0 mi Calm Calm - N/A   Clear
9:15 PM -5.8 °F - -9.0 °F 86% 30.24 in 10.0 mi Calm Calm - N/A   Clear
9:35 PM -7.2 °F - -11.2 °F 83% 30.23 in 10.0 mi Calm Calm - N/A   Clear
9:55 PM -8.3 °F - -12.3 °F 83% 30.22 in 10.0 mi Calm Calm - N/A   Clear
10:15 PM -8.9 °F - -12.8 °F 83% 30.22 in 10.0 mi Calm Calm - N/A   Clear
10:35 PM -7.1 °F - -10.8 °F 84% 30.22 in 10.0 mi Calm Calm - N/A   Clear
10:55 PM -7.6 °F - -11.6 °F 83% 30.22 in 10.0 mi Calm Calm - N/A   Clear
11:15 PM -7.8 °F - -11.6 °F 84% 30.23 in 10.0 mi Calm Calm - N/A   Clear
11:35 PM -7.4 °F - -11.2 °F 84% 30.22 in 10.0 mi Calm Calm - N/A   Clear
11:55 PM -9.0 °F - -13.2 °F 82% 30.22 in 7.0 mi Calm Calm - N/A   Clear